Location: *
(33.8649°S, 62.1526°E)
Time: 21:46:32
(UTC+00:00)

GPS 2-04 Rocket1 - Visible Passes

Search period start: 05 May 2021 00:00
Search period end: 15 May 2021 00:00
Orbit: 416 x 541 km, 35.6° (Epoch: 05 May)

Date Brightness Start Highest point End Pass type
(mag) Time Alt. Az. Time Alt. Az. Time Alt. Az.
12 May 5.1 01:46:19 10° N 01:48:27 16° NNE 01:50:36 10° ENE visible
13 May 5.1 01:16:43 10° N 01:18:49 15° NNE 01:20:55 10° ENE visible
14 May 4.9 00:47:37 12° N 00:49:10 15° NNE 00:51:15 10° ENE visible
